Theta_e
293 291 292 292 294 294 293 293 291 288 290 289 287 287 292 290 286 285 291 291 288 291 294 296 296 296 296 296 298 298 298 298 298 297 296 297 299 300 300 302 301 299 301 304 303 301 301 300 301 300 300 300 299 299 298 298 298 297 296 297 298 298 299 300 300 299 298 298 298 298 297 297 297 297 297 297 297 297 297 297 297 298 298 298 298 298 298
292 289 290 291 293 291 291 293 292 291 290 289 290 291 293 292 290 293 293 294 292 294 294 296 297 298 298 295 294 294 293 296 298 296 296 297 298 298 299 300 300 300 300 300 300 300 300 300 301 299 299 299 298 298 299 297 297 297 297 298 298 298 299 299 298 297 297 297 297 297 296 297 297 297 296 296 296 296 295 296 297 297 297 297 296 296 296
287 289 288 289 290 290 288 289 290 290 290 290 291 291 292 293 292 293 294 290 290 295 297 297 298 295 294 294 294 295 298 298 297 297 297 297 298 299 299 300 298 298 299 298 297 297 298 298 297 297 297 297 296 296 296 296 296 296 296 298 297 297 298 297 296 296 296 296 296 296 296 296 296 294 295 295 295 294 294 294 294 295 294 295 295 295 295
285 285 287 286 286 286 286 286 287 288 288 287 289 289 292 291 289 290 290 288 290 295 296 296 296 294 295 296 297 298 298 298 297 297 297 298 299 300 300 300 299 298 297 296 296 296 296 296 296 296 296 296 296 296 296 295 295 294 296 297 297 297 296 296 295 295 296 295 295 295 294 295 294 293 293 291 292 292 293 293 293 294 293 294 295 295 295
284 281 283 284 284 284 283 283 287 289 290 291 292 293 294 294 294 290 287 288 295 294 295 294 294 295 296 296 297 299 301 302 300 298 298 299 300 300 298 297 297 297 295 295 295 295 295 296 295 295 294 295 295 294 294 294 294 295 296 296 297 296 295 295 295 295 294 294 294 294 294 293 290 290 289 290 290 290 290 291 291 292 293 294 294 295 295
283 278 282 285 283 277 279 291 294 292 289 290 289 290 291 293 294 293 295 295 296 296 294 294 295 295 297 299 300 302 302 301 302 301 300 299 298 297 296 296 295 295 295 295 295 294 294 294 293 293 293 293 293 293 293 294 295 296 296 295 295 294 294 293 293 293 293 291 292 293 292 290 291 289 289 290 291 291 291 290 291 292 291 292 292 293 294
280 279 282 281 276 278 290 294 296 294 293 293 292 292 293 293 294 295 294 295 295 296 296 298 298 297 298 298 298 298 298 300 299 300 300 298 297 297 295 295 295 295 294 294 295 294 293 292 293 293 293 292 293 294 294 294 294 294 294 294 293 293 293 293 292 292 292 292 291 291 291 290 289 289 290 289 289 290 290 291 290 291 292 291 291 290 291
281 279 281 275 277 287 289 291 290 295 294 293 292 291 294 294 294 295 293 295 296 297 296 296 298 298 296 295 295 295 295 294 297 298 298 297 295 295 295 295 294 294 294 293 293 292 291 293 292 292 291 291 293 292 293 293 292 293 293 293 292 292 292 291 291 291 291 291 291 289 290 289 289 289 290 289 289 290 290 291 291 291 290 290 289 289 290
280 280 281 282 286 285 289 288 287 291 288 289 289 286 289 294 294 294 293 295 296 297 297 296 295 295 296 296 297 294 292 293 291 293 294 295 294 293 292 292 291 291 292 292 291 292 292 291 291 290 290 291 292 292 291 292 292 292 291 291 290 290 290 290 290 290 290 289 288 288 288 288 288 288 288 289 289 290 289 289 289 289 289 289 290 290 289
285 281 278 279 280 278 284 292 292 294 296 295 295 291 289 296 295 296 295 294 295 296 296 295 293 295 293 292 294 295 290 290 290 290 290 290 291 291 291 291 291 291 291 291 291 292 291 290 289 290 290 291 292 291 291 291 291 290 290 289 289 289 289 289 289 289 289 288 287 287 287 286 287 288 288 288 288 289 288 288 289 289 289 290 289 289 288
281 281 279 278 277 281 290 291 292 295 295 295 295 289 286 294 296 296 295 295 296 297 296 294 293 292 288 290 295 293 290 290 291 290 290 290 289 289 290 291 291 290 290 290 290 290 290 289 289 289 290 290 290 289 289 289 289 288 287 287 287 287 287 288 288 288 288 287 286 286 286 286 287 286 287 287 288 288 288 288 288 289 289 289 289 289 289
282 282 281 279 281 283 290 291 290 292 294 296 291 281 282 294 294 296 296 295 296 296 296 293 292 291 289 292 296 291 291 290 291 290 289 289 288 288 289 289 289 289 289 289 288 288 287 287 288 288 289 289 287 288 288 287 286 286 285 286 286 286 287 287 287 287 286 285 285 285 285 286 286 286 287 287 287 287 287 287 288 289 289 288 287 287 288
284 283 282 284 285 289 289 288 288 290 296 293 285 280 288 291 293 294 295 295 296 296 294 293 291 293 296 293 290 289 289 289 288 288 289 288 288 287 287 287 287 288 288 287 286 286 286 286 286 287 288 287 287 287 286 285 283 284 284 285 284 284 285 285 285 285 285 285 285 285 285 285 285 285 286 286 286 285 285 286 287 287 286 286 286 287 287
283 284 282 283 287 291 291 287 290 293 292 284 283 292 288 291 291 289 293 294 295 295 294 294 294 291 287 290 289 289 290 289 288 287 287 287 286 286 285 285 286 287 286 286 286 285 285 285 285 285 286 285 285 285 284 282 282 283 282 282 283 283 283 283 284 284 284 284 284 284 284 284 284 284 285 285 284 284 286 286 284 284 285 285 286 287 287
286 284 281 281 278 287 292 291 290 293 288 290 295 292 288 290 290 292 290 293 293 294 293 293 290 288 288 289 289 288 288 287 287 287 286 286 285 285 284 284 285 285 285 284 284 284 284 283 283 283 283 283 283 283 280 280 280 280 280 280 280 280 281 282 282 282 283 283 283 283 283 283 283 282 284 284 284 284 284 284 284 284 285 285 286 286 286
282 282 280 281 288 289 294 294 290 291 294 295 291 295 292 289 290 290 292 290 291 292 292 289 288 289 288 287 287 287 286 285 285 285 284 284 284 283 283 283 283 284 284 284 283 283 283 283 282 282 282 281 280 279 277 277 277 277 277 277 278 279 280 281 281 282 282 282 282 282 283 283 282 282 283 283 283 284 285 284 285 285 286 286 286 286 286
288 286 288 291 288 292 290 290 291 292 292 291 292 292 294 291 290 290 291 290 289 291 290 289 288 287 287 287 287 286 285 285 284 283 283 283 282 282 281 281 282 282 282 282 282 282 281 281 281 281 281 279 278 275 275 275 274 274 274 275 277 277 278 279 279 280 280 281 282 282 282 282 281 282 282 283 283 284 284 284 284 284 285 286 286 286 286
291 289 292 292 290 291 291 289 289 289 291 290 291 292 292 291 291 290 291 289 289 289 289 288 287 287 286 285 284 284 284 283 282 282 282 281 281 281 281 280 280 281 281 281 281 280 280 280 280 280 279 277 274 274 273 273 272 272 272 273 275 276 277 278 279 279 280 281 281 281 281 282 282 282 282 282 282 282 283 284 284 284 285 285 285 285 285
289 287 292 290 292 289 289 290 289 289 289 290 291 291 293 291 290 289 290 289 289 289 289 288 287 286 286 284 284 283 282 282 281 281 280 279 278 278 278 278 279 279 280 279 279 279 278 278 278 278 277 277 274 273 271 271 270 271 271 272 273 274 274 276 277 278 279 280 280 280 281 282 282 282 282 282 283 282 283 283 284 284 284 284 284 284 285
288 289 290 288 287 288 286 288 290 290 290 288 288 290 290 290 290 289 289 289 288 289 287 287 286 285 285 284 283 283 282 281 281 279 278 278 277 277 277 277 278 278 278 277 277 277 277 276 275 275 275 275 273 271 270 269 269 268 269 270 271 271 272 274 276 277 278 278 278 279 280 281 281 281 282 282 282 282 283 283 283 283 284 284 284 284 284
288 287 288 287 286 286 286 286 287 289 288 286 285 286 287 287 286 286 286 288 289 288 287 286 285 283 284 284 283 281 280 279 279 278 277 277 276 276 275 275 275 276 276 275 275 275 275 274 273 273 273 273 272 270 268 267 267 266 267 268 269 270 272 273 274 276 276 276 277 278 279 280 281 281 280 280 281 281 283 283 283 282 282 283 283 284 284
286 287 289 288 289 289 290 287 287 285 287 287 286 286 285 285 284 284 283 282 283 285 286 285 284 282 282 282 282 280 279 278 277 276 276 275 274 274 274 274 275 275 275 274 273 274 273 272 271 271 271 271 271 268 266 266 266 265 265 266 268 270 271 271 273 273 274 275 276 277 278 278 279 280 281 282 282 281 282 283 283 283 283 282 283 284 284
287 292 292 291 293 292 293 292 289 287 286 287 285 285 285 285 285 284 282 280 280 280 280 281 282 281 281 281 280 277 276 275 275 274 274 273 273 273 273 273 273 273 273 272 272 273 272 271 270 270 270 270 268 266 265 264 264 264 264 265 267 268 269 269 270 271 273 274 275 275 276 278 278 278 279 281 282 283 283 283 283 283 284 284 285 285 285
292 292 292 291 291 292 291 290 288 287 287 287 287 287 286 285 284 283 282 282 281 278 277 276 278 280 280 280 278 275 274 273 273 272 272 272 272 272 272 271 271 271 270 270 271 272 270 269 268 268 268 268 266 264 263 263 263 263 263 264 265 266 267 268 270 271 272 272 273 274 275 276 277 277 277 277 279 282 283 282 283 283 284 284 284 285 285
291 286 288 289 286 282 284 288 287 287 286 287 287 286 285 283 283 283 282 281 279 277 276 275 274 276 276 276 276 274 272 271 271 271 271 270 271 270 270 269 268 268 269 270 271 271 269 267 266 266 266 266 264 262 262 262 262 262 262 263 263 264 266 268 269 270 271 272 273 273 274 274 275 276 276 276 276 277 280 281 282 282 283 283 284 284 285
282 280 279 279 280 281 282 284 284 283 284 284 283 281 282 280 279 279 278 277 276 276 275 273 272 272 273 272 271 271 270 269 270 270 270 269 269 269 267 267 267 268 269 270 271 268 266 265 265 264 264 263 262 261 261 261 261 261 262 262 264 265 266 267 267 268 270 270 271 272 273 274 274 275 275 276 276 276 276 277 279 281 283 283 284 284 284
281 283 286 286 284 282 284 287 287 284 282 281 281 279 277 275 274 272 271 271 271 272 272 272 271 270 269 270 270 270 269 269 269 269 269 269 268 267 266 266 266 267 268 269 268 266 265 264 263 262 262 262 261 261 260 261 260 261 261 263 264 265 266 267 267 268 269 269 270 270 271 271 273 274 275 276 277 277 276 276 277 277 279 281 283 284 283
282 280 280 290 288 285 284 284 278 281 279 279 277 275 273 273 272 271 269 269 269 268 268 268 269 268 268 268 268 267 267 268 268 268 268 268 267 266 265 264 265 267 267 265 264 264 264 263 261 260 260 261 261 260 260 260 260 260 261 262 264 265 266 266 267 267 267 268 269 269 270 271 272 273 275 276 276 277 277 278 278 278 279 280 281 282 282
280 277 273 273 274 277 277 277 277 277 275 275 274 273 272 272 271 271 271 270 269 267 267 266 266 266 267 266 267 267 267 267 267 267 267 266 265 264 263 264 265 265 263 262 262 262 262 261 260 259 259 261 260 260 260 260 260 261 261 262 263 264 265 265 265 266 266 267 267 269 270 271 273 274 275 275 276 276 276 276 277 277 278 279 280 280 281
274 273 273 275 274 276 277 276 276 274 273 273 273 272 273 273 272 272 270 269 267 266 266 264 264 264 264 264 265 266 266 265 266 266 266 264 263 262 262 263 264 263 262 260 260 261 261 260 259 258 259 260 259 260 260 260 260 261 261 262 262 263 264 264 264 265 266 267 268 270 270 271 272 273 273 274 274 274 275 275 276 276 276 277 278 278 278
272 271 272 273 273 276 278 278 275 273 272 272 272 272 272 274 274 271 269 268 267 266 264 264 264 263 262 263 264 264 264 265 265 265 264 262 261 261 261 263 262 262 261 259 259 260 259 259 258 258 259 259 259 260 260 260 260 261 262 263 263 263 264 264 265 265 266 267 268 269 270 271 272 272 272 272 273 273 273 274 274 275 275 276 276 277 277
272 269 269 271 272 274 274 273 272 271 271 271 271 271 271 272 272 270 269 267 267 265 263 263 262 262 262 262 261 262 262 263 263 263 262 261 260 260 260 261 260 259 257 258 259 260 259 258 257 258 259 259 260 260 260 260 260 261 261 262 262 263 264 264 265 266 267 267 268 269 270 271 270 271 271 271 271 271 272 272 272 273 274 274 275 275 277
272 270 270 267 267 269 270 271 271 270 269 269 271 273 273 274 274 271 268 267 265 263 262 262 262 261 260 260 260 260 261 261 262 262 260 260 259 259 260 260 259 258 258 259 259 259 258 257 257 258 259 259 260 260 260 259 260 261 261 262 262 263 263 264 265 265 266 267 268 269 269 269 269 269 270 270 271 271 271 271 271 271 272 272 273 274 274
279 281 282 277 275 275 272 271 272 272 270 270 271 271 271 269 269 269 266 264 263 262 261 262 261 260 260 260 260 260 260 261 261 261 260 259 259 259 259 260 259 258 258 259 260 260 259 258 258 258 259 259 259 259 259 259 260 261 261 261 262 262 263 263 264 265 266 266 267 267 267 268 267 267 268 268 269 269 269 269 269 269 269 270 270 271 271
284 285 284 282 279 281 281 278 274 272 271 268 267 267 268 266 266 265 264 263 261 261 261 260 260 259 259 259 259 259 260 261 262 260 259 258 258 259 259 259 259 259 258 259 259 258 258 258 258 259 259 259 259 259 259 260 260 261 261 261 261 262 262 263 264 264 264 264 265 265 265 265 265 266 267 267 267 267 267 267 267 267 267 267 267 268 268
279 277 275 278 278 277 277 278 276 274 272 271 270 268 265 263 263 262 261 262 262 261 260 259 259 258 258 258 259 259 259 260 259 259 259 258 259 259 259 258 258 258 258 258 259 258 257 259 259 259 259 259 259 259 259 260 260 260 260 260 260 261 262 262 263 263 263 264 263 263 264 264 264 265 265 265 265 265 265 265 265 265 265 265 265 265 266
274 278 279 278 277 275 274 276 275 273 272 271 269 265 263 261 261 262 261 260 260 259 259 259 258 257 257 259 260 260 260 260 259 259 259 259 259 258 258 258 258 257 258 257 259 259 257 258 258 258 258 259 259 258 258 260 260 261 260 260 260 261 261 261 262 262 262 262 262 263 263 263 263 263 264 264 264 264 264 264 264 264 264 264 264 264 264
273 271 272 271 270 270 271 270 272 272 269 265 263 263 262 261 260 259 259 259 259 259 259 258 258 259 259 259 259 258 259 259 258 258 258 258 259 258 258 258 258 259 258 258 258 257 257 258 258 257 258 258 258 258 258 259 259 260 260 260 260 260 260 261 260 261 261 261 261 262 262 261 262 262 262 263 263 263 263 263 263 263 263 263 263 263 263
265 261 261 261 262 263 261 261 266 268 268 266 262 260 260 259 259 259 258 258 258 259 258 258 258 258 258 258 258 258 257 257 258 257 258 258 258 258 258 258 258 257 257 257 256 257 258 257 257 256 257 257 257 257 258 259 259 259 259 259 259 260 260 260 260 260 260 261 260 261 261 261 261 261 261 262 262 262 262 262 262 262 262 262 262 262 262
267 263 261 260 261 260 261 262 263 264 263 263 261 258 258 257 258 258 257 257 258 258 257 258 258 258 258 257 257 257 257 257 257 257 258 258 257 257 257 255 254 253 255 256 257 257 257 256 256 256 256 257 257 258 258 258 258 259 258 258 259 259 259 259 259 260 260 260 260 260 260 260 260 260 261 261 261 261 261 261 261 261 261 261 261 262 262
264 260 258 259 259 259 260 260 259 259 259 259 260 259 258 258 258 257 257 257 257 257 257 258 257 258 257 257 257 258 257 257 257 257 258 257 256 257 258 257 256 253 254 255 256 257 256 256 255 256 256 257 257 258 258 258 258 258 258 258 258 258 258 259 259 259 259 259 259 259 259 259 259 259 260 260 260 260 260 260 260 261 261 260 260 260 261
260 258 258 258 258 258 258 257 256 256 256 257 257 258 257 258 258 257 257 257 257 257 256 256 257 257 256 256 256 256 256 255 255 255 255 257 257 258 257 258 256 254 255 255 256 256 256 254 255 255 255 257 257 257 257 257 257 257 257 257 257 257 258 257 258 258 258 258 258 258 258 259 259 258 259 259 259 259 259 259 259 259 260 259 259 259 259
258 257 258 257 257 256 256 256 256 256 255 255 256 256 257 257 257 257 257 256 256 256 255 255 256 256 256 256 255 255 254 253 253 252 252 252 250 253 257 257 255 254 254 255 255 256 255 255 255 255 255 256 257 256 256 257 256 256 256 256 256 257 257 257 257 257 257 257 257 257 257 257 257 258 257 257 257 258 258 258 258 258 258 258 258 259 259
257 257 257 257 256 256 256 256 256 255 255 255 256 256 256 256 256 256 255 255 255 255 255 255 255 254 254 255 255 255 255 254 254 255 255 255 254 251 250 253 253 253 254 254 255 255 255 255 255 255 255 255 256 255 256 256 255 255 256 255 255 255 255 255 256 256 256 256 256 256 256 256 257 257 256 256 256 257 257 257 257 257 257 257 258 258 258
256 256 256 256 256 256 256 256 256 256 256 255 255 255 255 255 255 255 255 255 254 254 254 253 253 253 253 254 255 256 256 256 256 256 255 255 254 255 253 251 253 253 253 254 255 255 255 255 255 254 255 255 255 255 255 255 255 255 254 254 255 254 254 254 254 255 255 255 255 255 256 256 256 256 256 256 256 256 256 256 256 257 257 257 257 257 257
255 255 255 255 255 256 256 256 256 255 255 254 253 253 253 253 253 254 254 254 254 254 254 254 253 252 252 252 250 248 248 250 250 251 253 254 255 255 254 252 253 253 253 253 254 254 254 254 254 254 254 254 254 254 255 254 254 254 253 252 252 252 253 253 253 253 253 253 254 254 254 255 255 255 255 255 255 255 255 256 256 256 256 256 256 256 257
254 254 254 255 254 254 254 254 254 255 255 254 253 252 252 252 252 253 252 251 251 250 251 252 251 251 251 250 252 253 253 253 253 252 250 250 251 251 251 251 251 251 252 252 253 253 254 253 253 253 253 253 253 253 253 252 251 251 251 251 251 252 252 252 252 252 252 252 253 253 253 254 254 254 254 254 254 254 254 254 254 255 255 255 255 256 255
253 253 253 253 252 253 253 254 254 254 254 254 254 252 250 250 249 248 249 249 248 248 248 248 248 247 246 245 246 248 251 255 255 255 253 250 250 249 250 250 250 251 251 252 252 252 252 251 251 252 252 252 252 251 251 250 250 250 250 250 250 251 251 251 252 252 252 252 252 252 252 253 253 253 253 253 253 253 253 253 253 254 254 255 254 255 254
253 252 252 253 253 253 253 253 254 253 253 252 250 250 249 248 248 248 248 247 248 249 249 247 246 246 247 247 248 250 249 249 252 254 252 250 251 251 250 250 250 250 250 250 250 250 250 250 250 251 250 250 250 250 249 249 249 249 250 250 250 251 251 251 251 251 251 251 251 252 252 252 252 252 252 252 253 253 253 253 253 253 253 254 254 254 254
252 252 252 253 253 253 254 254 254 253 251 251 250 249 249 251 251 250 250 249 250 250 249 249 249 249 248 249 249 249 248 248 248 248 248 248 247 247 248 248 249 249 250 250 249 250 250 249 249 248 248 249 249 249 249 249 248 249 249 249 250 251 251 251 251 251 251 251 251 251 251 251 252 252 252 252 252 252 252 252 253 253 253 253 253 253 253
252 253 253 253 253 252 252 253 253 251 251 251 250 250 251 252 251 250 249 249 250 250 250 250 250 249 249 248 248 248 247 247 247 248 249 249 248 249 249 249 249 249 249 249 249 249 249 248 247 247 248 248 249 248 248 248 248 249 249 250 249 249 250 250 250 250 250 250 250 251 251 251 251 251 251 251 251 251 251 251 251 252 252 252 252 252 252
251 251 250 249 249 249 249 249 250 250 250 250 250 250 251 251 250 249 249 249 250 251 251 250 251 251 248 248 249 248 248 248 248 248 249 249 249 248 248 248 248 248 248 247 247 247 247 247 247 247 248 248 248 248 248 248 248 249 249 249 249 249 249 249 249 249 249 250 250 250 250 250 251 250 250 250 250 250 250 250 250 250 250 250 250 250 250
Wind_Speed
10 4 6 8 8 9 9 13 13 14 14 11 12 14 12 10 10 13 17 14 14 12 9 8 9 7 8 11 10 6 2 1 2 4 5 5 5 3 3 2 2 1 2 3 2 1 2 4 5 5 4 4 3 2 2 3 3 3 2 1 2 2 2 2 3 2 2 2 2 2 2 2 3 3 3 3 3 3 4 5 5 6 7 7 8 8 9
10 2 3 4 10 6 2 8 11 13 14 16 18 16 16 14 14 15 16 6 17 6 12 9 8 8 3 2 2 0 3 9 9 6 6 7 6 5 4 4 4 4 5 4 4 1 1 2 4 5 4 4 4 4 4 4 4 3 2 2 2 2 3 3 3 3 3 3 2 2 2 3 3 3 3 3 3 4 5 5 5 5 6 7 8 8 9
8 4 3 2 3 7 9 2 4 10 11 15 19 18 18 15 15 15 11 1 10 7 8 8 3 5 3 1 3 6 8 8 7 7 7 6 5 6 3 4 7 8 6 2 2 1 2 2 3 4 3 3 3 3 3 3 3 3 3 3 3 3 4 3 3 3 3 3 3 2 2 2 2 3 3 3 4 4 5 5 5 5 5 7 8 8 8
4 2 6 2 3 1 2 5 7 11 12 12 12 12 15 14 16 19 15 11 13 7 12 5 5 3 4 6 8 7 6 7 8 7 7 6 6 4 7 11 11 6 6 4 3 2 2 2 2 2 3 2 2 2 2 2 2 1 2 2 3 4 3 3 3 4 3 3 3 2 2 2 3 2 2 2 3 3 4 3 4 5 6 7 6 7 7
8 1 2 7 7 3 3 8 13 18 18 18 18 17 12 12 16 13 7 16 8 10 12 10 9 8 8 10 8 8 10 10 7 8 8 7 6 5 2 5 5 5 4 2 2 3 4 3 3 2 1 2 1 1 1 1 1 2 3 3 4 5 5 5 5 4 3 3 3 3 3 3 2 2 2 2 3 3 3 3 3 5 6 6 7 6 7
3 2 5 4 4 10 11 11 17 16 18 18 14 12 15 14 11 11 13 5 10 11 9 13 11 13 13 11 12 7 3 6 6 7 5 3 2 2 1 2 3 3 3 3 4 5 4 3 2 2 2 2 1 1 1 1 3 4 5 6 6 6 6 6 5 4 4 3 4 4 3 2 3 2 2 2 3 3 3 2 4 5 4 6 7 6 7
2 2 5 5 11 12 11 2 7 18 15 11 14 14 16 13 12 12 13 12 8 9 11 12 14 14 14 8 5 5 4 4 5 7 6 4 2 1 2 3 3 3 3 4 5 5 4 3 2 2 2 1 1 3 2 5 5 6 6 6 6 6 6 5 5 6 6 6 6 4 4 3 3 3 3 3 3 3 3 3 3 4 4 4 4 3 5
4 2 5 9 11 4 2 1 4 2 11 15 14 16 14 13 15 15 16 17 15 11 8 6 4 6 2 3 5 5 2 1 2 4 3 1 0 2 3 3 3 3 3 4 5 5 3 3 3 4 3 2 4 5 4 6 6 6 5 6 6 6 6 7 7 7 7 6 6 4 4 4 3 4 3 3 4 3 3 3 3 3 4 3 4 4 4
5 5 9 6 7 7 6 4 6 12 11 10 13 9 13 12 9 12 15 18 15 8 9 7 4 1 2 4 8 4 1 0 1 1 2 2 4 5 5 4 4 4 4 5 5 4 4 5 5 5 3 3 5 5 7 5 5 5 6 7 7 7 6 7 7 6 6 6 4 4 4 4 4 4 5 6 4 3 4 4 4 4 4 4 4 5 5
2 3 2 1 4 12 13 7 4 3 4 11 14 13 12 10 16 16 17 17 15 12 7 9 7 4 3 8 12 6 3 3 5 6 6 6 6 6 5 5 6 6 6 6 5 5 6 7 7 5 4 3 5 7 6 6 6 6 7 7 6 6 6 6 6 6 6 5 5 5 4 5 6 5 4 4 4 3 4 6 6 5 5 5 4 4 5
3 2 5 6 9 15 3 6 8 10 7 9 7 4 11 9 13 13 16 16 12 9 9 10 10 8 7 11 9 4 5 6 5 8 6 6 6 6 5 6 7 7 7 7 6 7 8 9 7 6 5 5 5 7 7 6 6 7 8 7 8 8 7 7 6 6 6 4 5 5 5 5 5 6 6 5 5 4 4 5 6 5 5 5 5 4 4
4 6 7 8 3 7 2 7 5 9 11 13 9 6 10 11 11 11 13 16 12 12 11 13 13 11 7 13 3 8 8 8 7 7 8 7 6 7 6 7 7 6 5 5 8 9 10 8 6 5 4 5 6 7 6 5 8 8 8 7 7 7 7 7 6 6 4 5 5 5 6 6 5 6 6 5 5 5 5 5 5 4 5 5 7 7 5
5 6 4 2 5 3 2 4 2 8 12 14 10 12 5 3 12 12 12 12 16 14 9 11 8 11 4 4 10 10 10 11 9 7 7 8 7 7 7 6 5 6 6 8 9 8 7 6 6 5 4 5 7 7 6 7 9 7 7 7 7 7 7 6 6 5 4 4 6 6 5 6 6 6 5 5 6 5 6 5 4 5 6 6 7 7 5
9 8 7 7 5 4 6 2 8 12 9 8 12 6 2 2 2 2 4 12 8 5 13 11 6 5 6 10 10 11 9 9 9 8 8 8 8 8 7 6 4 6 6 8 8 8 8 7 7 6 4 6 7 6 7 9 8 7 8 7 7 7 7 6 6 5 5 5 5 5 5 5 6 6 6 5 6 6 5 5 6 7 6 6 6 7 6
2 2 4 4 11 2 8 13 3 5 4 4 2 4 1 2 1 3 1 2 3 6 6 3 9 10 10 11 10 9 9 9 9 8 7 7 7 6 6 6 6 4 6 7 8 8 7 7 7 6 6 7 6 6 9 8 7 8 8 7 8 7 6 6 6 6 5 6 6 5 5 5 6 7 6 6 6 5 6 6 6 7 6 5 6 7 6
6 9 10 7 1 5 9 12 9 9 5 2 2 3 3 1 2 3 3 0 2 2 8 10 9 10 12 9 10 10 9 9 8 8 7 7 7 7 7 6 5 4 6 6 7 7 7 8 8 8 7 7 7 8 9 8 8 7 7 7 7 7 6 6 7 6 7 7 6 5 6 7 6 7 7 6 6 5 5 5 6 6 5 5 5 6 6
7 6 10 5 2 5 2 1 2 2 2 2 2 1 3 5 4 3 2 4 4 6 11 11 13 10 7 11 8 10 8 8 7 7 7 6 6 6 6 6 5 5 6 6 6 7 7 8 7 7 7 7 8 8 7 8 8 8 8 8 7 7 8 8 8 7 7 7 7 7 6 7 7 7 7 6 6 5 4 5 5 6 7 5 6 6 7
2 3 2 3 2 2 2 2 2 2 2 1 2 4 5 3 4 5 5 8 9 9 11 14 6 9 11 11 9 8 8 7 7 6 6 6 6 6 6 6 6 5 5 6 6 6 7 8 7 7 7 7 8 7 6 6 7 7 8 8 7 7 7 6 7 7 8 7 6 5 6 5 6 6 7 7 6 6 5 5 5 5 6 6 6 6 7
8 9 9 5 4 1 1 1 0 2 1 2 2 3 2 4 5 5 5 9 11 12 10 13 14 12 10 11 9 8 7 7 6 6 6 6 6 6 6 6 5 5 5 6 6 6 7 7 7 6 7 6 7 6 6 7 6 7 7 7 7 7 7 7 7 7 7 6 7 7 6 5 6 6 7 7 8 7 5 6 6 6 6 6 6 6 7
9 7 2 1 1 2 1 2 3 3 3 1 3 2 3 6 6 6 8 8 10 8 9 10 15 12 10 11 10 8 7 7 6 6 6 5 5 5 5 5 5 6 6 6 6 5 5 6 6 6 6 6 6 7 6 7 7 7 6 5 6 7 8 7 6 6 6 8 8 6 6 6 7 7 6 7 7 8 6 6 7 7 7 7 7 7 8
0 6 3 2 1 3 6 5 5 2 4 4 4 5 6 7 10 8 7 4 5 7 10 10 13 13 7 8 10 9 7 7 6 5 5 5 5 4 5 5 6 5 5 6 6 5 5 6 6 6 6 6 6 8 8 8 9 8 7 8 7 7 7 6 6 6 6 6 6 7 7 7 6 7 8 8 8 9 8 7 7 8 8 9 8 8 10
4 8 7 6 2 3 6 11 12 7 5 7 8 7 6 7 10 9 11 8 6 6 8 9 10 12 10 8 9 9 7 7 7 6 6 5 5 5 4 4 5 6 6 6 5 5 5 5 5 5 6 6 7 8 9 9 9 8 9 8 7 7 6 6 6 7 7 7 7 7 7 8 9 9 8 11 11 10 11 10 11 14 14 12 10 8 10
8 9 8 13 10 5 4 8 10 9 10 9 11 11 11 7 6 10 14 13 8 7 4 2 7 10 10 10 9 9 7 7 6 5 6 5 4 4 4 5 5 6 6 5 5 5 5 5 6 6 5 6 7 8 8 8 8 8 8 7 6 6 7 6 8 8 8 7 8 8 8 8 8 9 11 9 10 14 16 16 16 16 17 18 19 18 13
5 2 8 10 7 8 1 4 10 10 10 11 9 8 6 9 11 7 4 9 16 9 5 4 4 6 9 8 8 10 8 7 8 7 6 5 5 5 5 5 4 4 4 4 5 5 5 5 5 5 5 5 7 7 8 7 7 7 7 6 6 6 6 7 8 8 7 8 8 8 8 8 8 9 9 11 12 7 8 13 16 15 16 17 18 17 18
5 1 1 2 3 5 4 4 5 5 6 4 7 9 10 9 6 3 8 7 4 11 11 8 5 3 7 7 6 8 8 7 6 7 7 6 6 6 5 5 4 4 4 4 4 5 6 6 6 6 5 6 7 8 8 8 7 7 6 6 6 7 7 7 7 8 7 7 7 8 9 9 9 8 9 9 10 13 11 8 13 17 18 16 16 17 17
6 5 5 6 6 5 5 8 4 5 7 6 7 5 5 4 6 7 6 6 6 5 8 10 9 6 5 7 7 8 9 8 7 6 6 6 5 5 5 5 5 4 3 3 3 5 5 5 5 5 5 6 7 8 8 8 7 7 7 7 7 6 7 8 8 7 7 7 8 8 8 8 9 9 9 8 9 10 12 13 12 8 9 11 12 14 15
3 7 11 9 5 1 4 8 7 12 8 6 6 7 7 8 8 8 7 7 7 6 6 7 7 7 6 5 8 6 7 8 7 6 6 6 6 5 4 3 2 2 2 2 4 4 5 4 5 5 4 5 6 7 8 8 8 8 7 7 7 7 10 9 7 7 7 7 8 8 8 8 9 9 9 10 10 10 10 11 11 12 13 11 9 9 11
5 2 0 8 7 11 11 11 3 9 8 8 9 9 8 8 8 9 8 7 6 6 6 5 7 7 7 5 7 7 7 7 6 6 6 6 4 3 3 2 2 1 3 4 3 3 3 4 4 4 4 5 6 7 7 7 7 7 7 7 7 6 7 7 7 7 7 8 8 9 9 9 9 10 10 10 10 10 11 11 11 12 11 10 9 12 16
5 3 1 1 2 4 6 8 8 9 8 6 7 7 9 13 8 8 7 6 8 8 6 5 3 3 5 6 5 7 6 6 7 7 6 5 4 3 2 2 2 4 4 4 3 3 3 4 5 5 5 7 7 8 7 7 6 6 6 6 6 6 6 6 7 7 8 8 8 9 10 11 10 9 9 9 10 10 10 10 11 11 11 11 11 11 9
3 2 1 1 2 5 10 8 10 10 9 10 12 10 9 12 12 7 8 7 7 5 6 7 6 4 4 5 4 5 6 7 7 7 7 5 4 3 2 2 4 3 4 3 3 3 3 4 4 4 5 7 8 7 7 6 5 6 6 6 5 5 6 7 8 8 7 7 8 11 9 8 8 9 9 9 9 10 10 10 11 11 11 11 10 10 10
5 2 2 3 3 4 7 9 6 7 8 9 10 11 9 6 10 11 9 7 6 6 7 6 6 6 4 4 5 5 5 6 6 7 6 5 4 3 3 2 4 3 2 2 1 1 2 3 3 4 5 6 7 7 7 6 6 6 6 5 5 8 9 11 9 7 7 7 8 8 8 8 8 9 9 9 9 9 9 10 10 10 10 10 10 10 10
7 3 5 1 1 3 2 3 7 9 9 8 10 13 14 17 18 18 11 10 9 9 9 8 7 7 6 5 5 5 5 6 7 6 5 4 4 3 3 3 4 3 3 3 2 1 1 2 3 4 5 6 6 6 6 6 6 6 6 7 7 7 8 11 7 7 8 8 8 7 8 8 9 9 9 9 9 10 10 10 10 10 10 10 10 10 10
8 2 2 1 1 1 3 4 10 12 12 15 16 11 6 5 3 9 8 8 9 8 8 8 6 6 6 7 6 5 5 5 5 6 4 4 4 4 4 3 3 4 3 3 3 2 1 1 2 4 4 5 5 6 6 6 5 5 5 6 6 6 7 8 8 8 7 7 7 7 8 8 8 8 9 9 9 9 9 9 10 10 9 9 9 9 10
17 15 14 15 17 15 16 16 14 12 9 5 2 4 9 7 6 9 11 9 7 8 8 8 8 7 7 6 6 6 7 7 5 6 5 5 5 5 4 4 4 4 3 3 3 2 2 2 3 3 4 4 5 4 5 5 4 4 5 6 6 6 6 6 7 6 6 6 7 8 8 8 8 8 9 9 9 9 9 9 9 9 9 9 8 9 11
16 15 10 12 16 16 18 19 19 17 16 17 12 9 9 8 8 10 12 12 14 9 7 7 8 7 7 6 6 7 9 8 7 7 6 6 5 6 5 5 4 4 4 3 3 2 2 2 3 4 4 3 3 3 5 5 5 4 5 5 5 5 5 5 5 5 6 6 6 6 7 7 7 7 8 8 8 8 8 9 9 9 9 9 9 9 10
11 7 3 6 12 12 7 7 12 19 19 19 19 17 15 14 12 14 14 11 7 8 9 9 8 7 7 7 8 8 9 6 6 6 7 6 6 6 5 5 5 4 4 3 3 3 2 2 4 7 4 3 3 4 5 6 5 4 4 5 4 5 5 5 5 5 5 5 5 6 5 8 8 7 7 7 7 7 7 8 8 8 8 9 9 10 9
8 13 12 10 9 11 9 9 12 14 14 14 13 13 12 12 14 9 8 9 8 9 10 9 10 10 9 7 5 5 5 6 6 7 7 6 6 5 5 4 4 4 3 3 0 3 2 3 5 6 4 2 3 4 5 8 5 4 4 4 4 4 5 5 5 5 5 5 5 6 7 7 5 6 6 6 6 6 7 7 8 8 8 8 8 9 9
15 12 10 7 7 9 9 5 7 11 9 8 4 6 13 14 13 12 11 8 8 9 8 8 7 7 7 6 6 7 8 6 6 6 6 6 5 6 5 4 3 3 2 1 1 2 2 3 5 4 3 2 3 4 5 7 8 4 3 3 4 4 4 4 5 5 5 5 6 5 5 5 6 6 6 6 6 6 7 7 7 7 7 8 8 8 8
5 3 2 2 4 5 6 4 4 10 15 18 13 11 9 11 11 12 11 9 9 8 9 8 8 8 8 9 8 7 6 5 6 6 5 5 4 5 2 2 2 1 0 0 1 1 2 3 3 2 1 2 4 4 4 6 7 3 3 3 3 3 3 3 4 4 5 5 5 5 5 5 5 5 5 6 6 6 6 7 7 7 7 7 7 8 8
7 7 7 5 6 5 6 6 6 8 5 8 15 18 13 15 13 12 11 11 9 10 10 10 10 10 9 8 9 8 7 6 6 6 6 5 5 5 2 1 2 1 1 1 1 1 2 3 2 1 1 2 2 2 3 5 6 2 2 2 2 3 3 3 3 4 5 5 5 6 5 6 5 6 6 6 6 6 6 7 6 6 7 7 7 7 7
8 7 6 7 6 5 6 8 8 6 7 8 8 11 8 13 13 12 12 11 10 10 10 9 9 7 10 10 9 7 6 6 6 6 5 5 6 5 4 3 3 2 1 1 1 1 2 2 1 1 2 2 2 3 3 5 3 1 2 2 2 2 2 2 2 3 3 4 5 5 5 6 6 5 6 6 6 6 6 6 6 6 6 6 7 7 6
8 8 7 7 7 7 6 7 9 10 7 6 8 10 11 8 11 11 10 10 9 9 9 7 5 8 8 7 7 7 6 6 6 5 4 6 5 5 4 2 2 1 1 2 2 2 2 2 2 2 2 3 2 4 6 5 2 2 2 2 2 2 2 2 3 3 3 3 3 4 4 4 5 5 5 5 5 5 5 5 5 5 5 6 6 6 6
10 12 11 9 8 8 9 9 11 12 7 8 8 9 9 8 10 10 11 11 10 10 9 7 8 8 8 9 8 8 6 5 6 4 2 0 1 1 0 1 1 0 3 2 2 2 2 2 2 2 3 4 4 6 7 3 2 2 2 2 2 2 2 2 3 3 3 3 3 3 3 4 4 4 5 5 5 5 5 5 5 5 5 5 5 6 6
8 8 8 10 10 9 8 9 11 9 10 8 7 8 8 8 8 11 11 11 10 9 10 9 9 8 8 8 8 7 7 5 5 3 4 1 0 1 1 1 0 1 3 3 2 2 2 2 2 4 6 6 6 7 4 3 3 2 2 2 2 2 2 3 3 3 3 4 4 3 4 5 4 4 4 5 5 5 5 5 5 5 5 5 5 5 5
7 7 8 9 9 10 9 9 11 11 8 9 9 9 9 9 9 8 9 9 10 8 8 10 10 9 7 7 5 3 3 2 3 4 5 4 4 4 4 2 0 1 2 4 3 3 3 3 4 6 6 7 7 7 4 3 3 3 3 3 3 2 2 3 3 3 4 4 4 4 5 4 5 5 5 5 6 6 6 6 6 5 5 5 5 5 5
7 6 7 9 11 9 7 8 9 9 10 11 11 9 7 8 9 8 7 9 9 7 5 6 8 8 8 6 4 4 3 1 0 1 1 1 0 0 2 1 0 1 4 5 4 4 4 6 7 7 6 7 7 5 4 4 4 3 3 3 3 4 3 3 3 4 4 4 4 4 4 5 5 5 5 5 5 6 7 7 7 6 5 6 6 5 6
8 8 8 7 7 8 10 11 13 12 11 10 9 7 5 7 7 5 5 6 7 7 6 5 6 5 4 6 6 3 2 1 1 2 2 1 1 0 0 1 3 4 4 3 3 4 3 4 4 6 7 7 7 5 4 4 3 3 3 3 3 3 3 3 4 4 4 4 5 6 7 7 6 6 6 6 6 6 6 6 6 6 6 6 6 6 6
11 11 9 10 12 11 11 11 11 10 10 8 8 8 6 7 9 8 7 8 7 6 7 6 6 5 5 4 2 2 0 1 3 2 3 4 2 1 1 1 2 4 6 7 8 7 8 8 8 8 7 7 5 5 4 3 3 3 3 3 3 4 3 3 4 4 4 5 5 5 5 5 5 5 5 6 6 6 6 6 6 6 6 6 6 6 6
7 9 10 10 11 10 10 11 10 8 7 7 9 6 6 8 8 7 7 7 6 5 5 5 4 3 1 1 0 0 1 1 0 0 2 1 1 1 1 3 5 6 5 4 5 5 6 8 8 7 8 7 5 4 4 3 4 4 4 4 4 4 4 4 4 4 5 6 6 6 6 7 6 5 5 6 6 6 6 6 6 6 6 6 6 7 6
10 9 8 8 9 9 10 9 7 5 8 6 6 5 6 7 6 5 4 4 4 3 3 2 1 1 1 2 1 1 0 0 0 0 0 1 2 2 3 2 3 6 7 6 5 6 5 7 6 6 6 5 5 4 4 4 4 4 4 5 5 5 5 6 7 8 7 7 6 6 7 7 6 7 7 7 7 7 7 7 7 8 12 10 8 7 6
7 7 7 7 7 6 6 5 5 7 8 6 6 5 7 7 6 6 5 5 5 4 3 2 2 2 3 2 2 1 1 1 1 1 1 1 1 3 4 3 4 5 5 6 6 6 4 4 4 5 5 5 5 4 4 4 4 4 5 5 5 5 5 6 5 5 6 6 6 6 7 6 7 7 7 7 7 7 7 7 7 7 6 6 7 7 8
7 7 6 6 5 6 6 7 7 6 7 7 6 6 5 5 7 5 4 3 3 4 4 4 3 3 4 4 2 2 1 1 1 1 2 2 2 2 3 5 5 5 6 5 5 5 5 6 6 6 7 5 5 5 5 6 5 5 5 5 5 5 6 6 6 6 6 6 6 7 7 7 6 7 7 7 7 7 8 7 7 7 7 7 7 7 7
Wind_Direction
226 45 143 162 194 207 200 192 169 163 177 162 190 213 217 133 204 230 237 209 222 214 192 211 211 180 191 201 203 196 239 172 183 190 207 232 242 259 267 280 78 108 274 309 337 292 320 348 336 347 350 342 343 338 2 5 6 21 2 35 55 40 25 19 22 11 354 358 341 334 321 312 302 294 288 287 281 274 261 256 258 262 267 267 264 260 257
220 117 163 172 187 179 142 186 181 183 166 183 195 212 210 188 217 226 246 178 222 172 187 206 218 210 196 76 27 348 217 225 201 185 217 228 224 216 236 257 260 213 199 230 270 289 278 304 335 347 340 339 350 352 3 2 356 5 357 46 53 43 32 25 14 5 352 350 347 342 331 311 306 301 294 286 273 265 259 254 254 258 264 264 260 259 261
226 135 80 67 220 168 189 88 151 174 184 199 205 215 218 214 239 244 241 250 266 211 203 204 193 78 99 329 245 229 231 229 221 206 210 214 224 226 194 158 203 202 172 180 228 289 316 334 311 314 308 315 337 350 356 348 341 348 357 45 48 38 40 27 14 4 359 4 350 343 335 313 299 291 276 266 262 258 258 256 255 253 251 259 257 255 253
227 145 157 120 89 65 137 139 173 180 181 200 214 219 217 201 220 233 242 257 258 187 159 228 258 156 171 206 229 230 240 241 232 228 233 231 240 233 199 185 185 157 122 154 181 170 164 170 216 271 298 330 339 7 350 331 329 332 43 66 70 64 51 38 32 20 9 354 348 342 335 316 307 294 287 278 270 268 265 262 256 250 252 249 251 252 255
215 41 178 134 120 107 237 213 200 191 196 201 208 216 218 210 213 219 205 232 226 122 168 165 219 239 221 228 227 237 230 216 192 215 233 234 230 228 336 5 22 56 77 99 134 128 135 143 160 179 239 234 225 254 237 252 214 129 101 86 80 66 49 42 33 23 5 356 344 345 343 323 301 289 276 274 269 264 260 261 266 253 248 250 251 247 248
161 19 140 137 127 220 225 213 202 176 193 204 199 204 209 212 201 220 218 233 105 148 149 173 188 203 219 220 230 243 274 269 267 249 228 258 320 29 27 25 43 49 77 117 120 120 123 127 145 162 192 204 185 201 192 171 106 79 75 62 60 57 49 39 27 15 9 355 355 350 340 329 323 313 307 295 300 291 284 272 256 259 256 253 255 251 250
144 162 146 149 220 231 228 2 162 195 203 180 199 222 218 208 212 243 258 260 210 175 180 185 192 201 214 228 269 277 244 235 251 270 305 314 322 47 82 94 85 86 105 102 93 83 76 77 87 142 114 62 152 89 62 72 59 70 65 66 57 46 40 28 16 12 5 2 357 348 342 337 327 322 316 312 300 298 294 285 275 273 277 272 263 262 262
66 140 167 209 226 224 19 268 357 182 174 197 203 235 231 215 207 211 230 235 230 195 185 210 218 218 268 353 269 255 310 17 291 265 247 223 141 90 83 114 105 105 84 77 73 70 46 46 49 48 38 5 55 60 51 58 59 58 60 58 48 31 26 16 9 2 358 354 351 345 341 333 324 320 321 312 310 308 294 289 279 275 273 264 270 273 270
175 179 197 231 15 331 205 228 203 171 178 170 182 216 236 204 198 206 227 239 238 209 177 172 200 47 42 264 254 167 52 30 22 313 37 59 80 86 83 78 90 75 76 79 78 79 60 44 41 36 23 37 67 66 57 45 50 45 45 44 28 20 16 6 359 353 352 345 338 339 334 329 324 324 327 323 316 317 304 298 296 290 285 279 279 281 278
154 147 188 252 245 251 234 209 53 211 164 162 182 197 256 209 204 202 210 225 227 220 165 148 144 112 214 249 252 171 117 108 111 75 81 76 79 82 91 91 87 87 88 84 73 74 67 54 37 21 17 48 68 66 57 42 39 38 39 30 16 9 2 355 347 345 343 342 333 330 329 325 317 313 312 307 304 319 308 305 299 295 295 290 278 270 270
140 176 192 197 212 235 259 132 172 177 181 157 131 177 250 225 191 201 203 224 227 213 191 148 141 148 202 232 229 117 129 113 112 111 88 81 78 69 64 78 89 84 76 78 77 66 60 50 27 18 24 36 59 63 50 39 36 37 26 10 2 353 346 340 337 338 337 336 327 320 313 306 306 306 305 303 299 296 284 279 274 282 283 283 282 276 262
203 193 208 223 203 248 169 177 168 152 127 124 120 205 246 243 148 193 189 211 220 224 210 150 174 178 212 230 188 132 124 118 103 110 116 103 92 81 78 66 70 81 90 83 61 54 49 39 21 16 36 62 66 64 53 45 41 29 10 357 339 333 329 331 332 329 327 317 306 303 297 297 298 291 293 293 288 290 284 279 282 282 283 282 286 282 276
188 187 237 310 270 253 198 207 154 143 150 144 178 210 235 131 171 191 182 196 214 211 159 155 184 214 231 62 107 121 118 108 95 79 81 83 81 84 76 72 71 74 67 69 68 60 50 33 26 19 33 58 61 53 47 42 33 11 351 338 331 330 325 321 321 318 319 309 299 291 287 294 295 290 288 287 290 290 288 282 274 280 274 275 271 267 260
196 196 211 231 282 235 150 359 145 158 136 202 211 203 28 69 68 355 201 206 206 137 170 187 192 93 110 109 106 117 115 107 108 105 102 97 84 73 69 56 67 87 78 78 75 62 46 34 28 24 31 63 60 52 47 39 14 352 341 336 331 325 320 313 308 304 298 297 284 289 291 293 295 289 284 283 286 288 290 293 286 274 273 280 280 277 273
88 120 228 237 248 149 103 105 77 285 206 233 141 115 30 66 76 108 154 245 134 156 134 85 110 126 115 120 117 110 112 110 111 110 100 93 88 79 74 67 44 67 89 78 68 61 44 36 31 26 38 59 59 55 48 24 356 347 336 332 326 317 309 305 309 303 301 305 305 295 291 287 284 289 293 297 289 282 280 283 274 279 276 273 278 283 283
174 189 200 211 190 119 190 146 179 197 214 23 188 141 123 219 175 168 123 240 162 173 132 131 124 124 121 103 117 107 98 98 97 93 89 89 88 82 68 62 51 59 83 81 79 63 50 45 42 37 41 55 54 52 36 5 347 338 335 328 323 317 319 321 319 327 328 320 313 312 315 315 305 297 298 298 292 288 294 295 298 296 297 294 291 288 293
196 200 218 215 201 136 115 65 349 323 352 300 160 160 105 152 197 183 136 140 146 141 126 120 128 122 118 125 122 120 117 111 104 97 86 77 77 75 72 59 45 56 73 82 83 69 53 46 45 41 43 56 56 47 17 358 345 343 335 327 327 329 330 326 328 328 325 322 321 325 324 322 316 309 305 310 302 297 287 287 285 289 292 295 291 293 292
16 309 198 56 115 184 161 31 285 289 339 3 236 183 144 202 157 176 165 149 138 137 131 121 110 120 130 120 113 107 112 106 104 102 95 81 71 72 68 57 47 62 72 72 73 71 57 46 42 43 44 56 53 30 4 355 341 333 323 321 332 332 332 328 327 323 326 317 310 313 315 316 314 311 309 309 301 299 295 287 284 282 288 290 289 288 286
160 230 187 176 165 119 276 243 141 217 247 291 287 278 328 136 134 126 125 142 144 141 147 128 134 133 137 125 123 122 117 111 104 101 93 82 68 60 59 48 54 65 70 71 67 67 61 42 39 35 41 53 50 24 5 353 340 333 323 325 326 325 327 322 316 320 320 330 327 323 324 318 310 298 297 299 303 300 293 292 291 287 286 286 288 288 287
193 227 62 42 46 271 279 203 204 212 180 86 21 33 78 102 96 102 119 124 121 131 133 133 130 137 141 134 137 133 126 124 120 106 101 94 88 69 62 52 52 68 62 65 57 59 62 43 29 27 27 36 44 22 4 354 339 334 326 330 323 315 321 316 317 323 320 317 316 313 309 309 311 309 306 303 299 296 298 302 303 300 301 297 295 298 300
266 347 291 244 245 210 219 225 242 228 163 144 109 106 114 120 114 105 75 33 120 128 129 127 125 122 137 135 137 131 133 129 126 120 112 106 93 82 65 49 49 60 64 57 50 52 61 43 22 19 19 19 27 19 9 355 349 346 339 331 322 316 319 326 323 325 318 315 316 317 312 312 302 299 301 301 296 291 282 277 280 289 293 287 285 289 294
215 213 201 143 185 233 187 213 196 169 164 142 136 137 135 144 131 132 113 88 41 84 120 134 130 128 138 142 138 131 129 128 126 126 121 113 106 90 79 67 65 66 65 59 44 53 61 44 21 13 13 14 23 19 8 354 351 349 343 336 333 334 334 333 331 331 329 324 324 321 317 315 314 306 281 274 274 280 289 282 268 264 265 268 274 287 288
221 220 179 185 211 249 229 184 171 173 167 159 156 171 163 164 160 151 131 124 116 117 85 14 128 133 141 145 134 123 123 124 117 116 123 121 116 97 77 75 58 59 51 42 44 57 54 32 16 9 10 15 26 14 6 354 350 344 341 338 334 330 333 333 330 324 322 321 321 316 311 313 312 310 312 304 281 275 276 276 275 276 277 273 272 266 267
249 87 168 188 191 225 320 145 160 160 168 170 170 165 155 160 165 175 147 143 143 138 118 72 28 120 130 137 137 126 122 125 129 125 117 112 111 107 85 76 62 54 36 34 39 52 49 26 10 2 11 17 29 8 0 352 348 344 340 336 328 321 319 316 320 324 318 313 311 313 312 313 311 311 311 312 310 284 274 292 292 284 278 277 274 275 274
228 101 104 141 87 63 37 79 101 118 145 160 159 161 167 153 137 117 126 100 62 131 138 130 105 85 117 116 119 130 131 129 126 122 122 116 104 96 88 69 44 39 25 31 28 49 40 20 6 1 9 9 16 2 353 347 343 341 335 330 315 313 312 316 318 316 313 313 312 312 310 310 311 310 309 309 308 313 311 296 288 289 286 276 273 274 277
119 114 88 84 70 71 91 87 69 152 167 161 129 113 93 85 105 99 75 90 108 97 115 131 131 124 123 126 120 119 116 122 130 129 116 108 101 83 59 42 27 22 34 22 52 56 43 18 357 355 1 3 7 353 345 342 340 329 328 323 318 315 321 319 317 316 315 316 314 312 309 305 302 302 300 297 298 300 305 314 316 286 263 278 285 285 282
95 149 124 77 49 98 247 194 187 185 164 129 120 114 104 102 93 83 75 65 71 82 97 111 118 119 103 98 111 113 121 123 112 100 97 98 94 81 63 44 39 37 357 52 59 46 36 9 359 355 357 354 0 343 339 337 338 335 331 329 322 315 314 319 315 316 315 315 313 310 310 309 308 306 302 302 298 298 299 302 303 306 312 310 301 291 301
157 164 308 191 193 189 212 215 18 121 125 137 139 129 121 110 110 110 109 113 105 102 95 105 126 133 124 132 127 116 109 114 111 115 113 110 101 89 75 57 81 51 73 65 42 30 20 3 351 346 344 355 350 337 334 336 333 334 333 330 327 324 320 323 323 317 314 311 310 307 308 308 306 302 301 303 304 303 301 296 296 299 301 302 303 307 301
184 152 52 43 11 5 50 81 101 114 120 99 95 112 134 129 140 135 146 150 145 140 136 126 89 97 124 134 133 125 124 124 124 128 122 114 98 88 85 96 84 83 79 59 45 22 6 357 354 347 340 353 344 334 337 336 335 335 335 327 325 320 320 323 322 312 309 306 302 303 305 306 305 307 307 307 307 305 302 300 300 300 298 304 310 310 305
139 202 5 44 125 147 118 140 156 153 144 154 151 169 180 151 148 180 157 155 159 147 138 133 132 125 125 123 125 130 136 139 135 129 134 123 109 100 78 88 96 96 83 55 34 11 353 347 345 335 336 345 334 328 333 330 323 321 316 313 306 314 316 318 316 311 307 305 302 304 304 302 303 306 309 307 308 305 303 303 307 308 307 308 309 309 314
172 66 53 95 136 192 190 180 148 149 149 162 164 159 179 202 168 146 165 160 159 149 152 156 143 135 136 131 129 124 121 125 128 131 123 105 88 89 98 132 154 174 159 157 159 342 332 334 330 326 335 329 320 327 332 335 330 331 332 335 327 314 312 320 318 313 312 307 308 311 310 309 312 313 312 312 311 310 310 311 310 309 309 310 311 313 316
127 84 64 62 154 189 160 120 153 177 181 171 166 181 184 175 183 184 168 173 178 160 153 151 156 162 152 139 134 139 133 127 127 123 119 106 111 109 128 124 131 136 150 168 158 155 312 319 327 325 335 319 327 335 338 340 337 338 339 335 329 328 331 328 326 320 316 308 306 308 313 320 319 319 315 315 316 317 316 315 313 314 315 314 316 319 322
137 133 273 227 72 90 200 206 182 192 170 185 203 195 161 181 61 152 147 139 133 151 160 158 154 144 144 146 144 140 128 124 124 125 122 135 134 148 158 157 149 162 164 156 148 144 93 337 307 327 320 326 332 336 342 333 326 329 329 329 323 321 319 321 319 318 315 316 321 328 326 323 321 321 321 319 319 319 319 316 316 316 317 318 318 324 333
187 202 206 189 180 185 195 204 201 200 217 272 27 154 182 191 163 146 143 147 134 145 164 158 150 149 149 147 144 137 140 138 149 171 169 158 164 160 167 157 154 150 162 147 128 78 33 348 318 314 326 327 329 327 330 326 326 326 325 324 323 320 323 322 327 329 329 330 330 329 326 326 326 327 327 326 326 327 324 323 324 323 320 322 324 327 325
204 213 218 200 198 202 195 187 185 193 185 180 188 194 184 168 165 164 152 159 169 161 141 130 141 151 143 141 141 158 168 177 168 148 158 163 162 163 157 155 158 150 149 150 134 78 352 294 290 325 318 307 296 331 344 333 339 337 338 330 319 315 321 324 332 335 334 329 330 330 329 331 326 324 323 327 328 329 326 325 326 326 326 326 329 331 331
201 213 219 190 205 214 218 210 194 182 178 186 190 181 168 163 156 151 164 168 136 137 142 147 145 141 146 153 164 174 176 170 142 145 156 161 162 154 151 151 147 147 143 136 124 101 350 322 348 354 338 330 341 351 348 352 347 348 340 336 327 329 327 325 321 324 330 331 330 328 329 324 319 318 326 327 328 326 327 325 328 329 330 328 330 333 331
202 207 213 210 203 191 194 187 181 184 191 185 167 157 158 163 167 155 121 131 151 152 149 145 144 155 168 170 154 139 140 149 154 158 158 158 154 149 149 145 143 148 153 155 353 57 354 341 351 354 345 345 348 342 341 355 354 345 344 343 340 339 337 335 335 333 328 330 330 324 323 327 331 329 333 334 332 330 329 329 330 328 328 331 332 332 335
204 208 213 200 185 185 190 190 172 168 151 123 131 164 166 154 147 148 153 142 141 148 146 148 144 140 135 130 143 156 161 156 150 152 150 149 156 147 161 144 152 151 161 160 31 14 337 339 346 350 341 354 347 338 338 349 350 342 352 349 343 334 331 329 326 326 326 325 327 324 329 328 328 330 332 333 333 333 333 333 331 330 329 331 333 334 338
187 111 88 101 117 151 138 86 143 164 172 169 160 146 148 148 144 140 145 153 154 141 132 138 144 140 150 152 158 160 154 155 154 151 152 160 158 152 150 128 126 107 120 306 15 322 334 341 343 330 330 331 321 311 329 345 345 344 343 346 336 329 327 324 322 317 321 321 324 325 333 331 326 325 327 331 328 328 330 333 330 331 334 332 335 336 338
193 180 180 153 159 159 139 143 148 153 149 158 158 157 159 148 154 151 148 145 156 155 154 151 152 155 161 161 158 159 163 151 155 156 156 146 128 126 118 84 196 302 268 231 280 295 318 338 330 305 306 312 321 328 329 339 338 331 336 338 334 332 329 325 319 326 326 326 321 320 327 326 323 322 322 327 329 330 333 334 333 333 332 333 335 334 334
189 162 150 161 158 141 152 148 144 135 130 141 140 125 138 146 147 144 155 151 152 148 152 160 157 156 166 166 161 147 139 150 149 159 153 130 142 168 170 204 174 149 241 255 270 286 310 314 306 298 297 305 302 332 323 333 334 328 326 327 319 320 316 317 316 313 319 321 322 322 321 323 319 318 324 325 325 326 327 326 327 328 330 331 329 328 328
177 143 141 144 151 147 136 122 116 104 99 114 126 131 126 146 137 141 137 126 131 142 151 156 158 156 149 141 134 134 133 142 137 156 166 178 174 167 173 189 115 115 288 266 272 282 275 273 261 273 278 296 301 325 331 318 321 319 310 310 307 306 302 305 300 298 298 301 296 299 306 307 308 307 311 313 311 312 314 318 318 318 322 324 323 322 321
162 167 170 159 144 140 134 135 121 116 107 99 126 119 129 125 122 119 131 141 144 146 145 148 140 138 141 145 144 142 141 132 137 129 101 1 338 312 6 122 94 300 284 272 265 260 269 273 283 277 292 301 303 317 315 305 312 304 298 287 295 290 289 285 290 292 297 292 293 295 295 299 297 300 302 303 303 302 306 307 305 308 312 312 310 313 315
153 150 153 148 142 145 139 127 127 128 124 124 126 115 118 120 129 136 139 141 144 148 150 149 147 146 150 152 148 158 166 162 156 164 152 160 15 309 244 139 263 264 275 273 263 265 265 270 263 281 284 289 298 307 301 288 290 282 281 284 277 282 282 278 277 277 279 284 284 287 288 286 288 286 289 290 292 296 290 289 292 293 294 298 297 299 301
154 153 149 147 144 138 141 144 146 143 125 115 110 101 95 114 121 126 131 140 142 142 141 138 132 146 152 160 166 166 154 153 157 154 152 171 193 219 169 174 225 263 273 272 269 263 260 260 265 275 281 289 293 302 287 269 273 272 275 276 277 273 272 272 269 272 272 272 276 275 276 278 275 278 276 278 281 283 285 286 286 286 286 289 294 293 294
136 130 135 138 144 146 136 119 104 111 115 114 98 75 66 89 98 103 120 130 134 132 139 136 134 128 117 125 86 63 67 66 341 310 0 31 193 70 88 98 266 252 276 274 261 258 254 263 274 279 285 287 293 288 265 263 263 267 267 269 265 263 263 264 269 266 272 271 275 275 275 275 275 269 272 275 278 281 281 284 284 282 278 279 280 282 287
133 133 142 139 122 116 117 117 121 117 115 116 120 129 122 104 105 109 89 91 96 97 104 111 106 96 103 134 142 142 152 163 229 200 184 225 193 224 45 327 279 280 275 262 257 259 269 278 280 284 286 286 286 272 264 266 260 256 257 255 259 256 260 259 263 264 266 266 268 270 271 271 272 276 276 275 272 270 274 278 277 278 279 280 277 278 279
141 142 137 132 129 128 127 131 133 136 141 140 134 121 113 106 93 85 87 83 86 86 80 83 87 82 79 92 53 14 352 160 178 216 155 169 191 203 243 265 290 295 292 278 272 271 275 282 284 284 284 288 280 260 258 258 260 256 251 249 252 254 253 255 257 260 264 265 267 266 265 262 259 261 264 267 269 267 267 271 271 276 277 278 279 279 279
120 120 126 126 128 133 133 137 138 134 139 121 116 120 124 114 108 99 92 89 96 95 93 69 73 60 56 82 130 138 146 344 351 148 49 160 219 289 302 303 301 298 290 273 274 273 277 280 282 284 288 284 266 260 259 257 255 256 253 253 255 253 252 254 261 267 269 268 264 261 263 267 266 264 266 266 266 267 268 266 266 266 271 279 281 277 274
128 127 128 138 142 146 152 150 149 143 140 133 126 130 144 135 119 131 134 126 122 100 106 111 132 152 160 193 187 182 78 90 78 86 307 336 319 279 283 282 280 276 272 275 279 278 280 285 289 290 280 262 254 255 255 257 252 249 253 252 250 257 255 262 268 266 263 267 270 269 268 266 267 268 271 274 272 273 273 270 270 272 275 275 274 278 280
141 140 138 133 118 94 74 75 111 133 144 132 125 133 145 143 132 133 139 141 138 136 150 152 185 195 186 198 202 180 152 155 206 255 281 273 259 268 268 272 273 269 273 271 271 276 284 287 281 273 260 256 254 255 253 252 255 256 252 257 259 268 273 267 261 262 258 259 266 267 264 268 266 269 270 267 268 270 271 271 272 273 273 272 274 274 279
84 90 75 78 85 87 87 86 95 115 130 135 134 142 135 126 133 128 128 157 164 160 155 152 180 205 178 187 179 192 176 202 230 256 271 276 283 280 276 272 272 271 268 269 274 273 274 273 268 263 266 268 265 267 264 263 262 264 267 265 266 265 262 267 268 267 266 262 260 264 264 264 268 273 269 266 266 269 272 271 272 274 274 275 274 275 276